Flag for U.S.A. Weather past 2 weeks in Redmond, Washington, U.S.A.

Now
53 °F

Overcast.


Feels Like: 53 °F
Forecast: 44 / 50 °F
Wind: 3 mph from Northeast

Location: Seattle Boeing Field

Current Time: Dec 22, 2014 at 3:53:18 PM

Latest Report: Dec 22, 2014 at 2:53 PM


Visibility: 10 mi

Pressure: 30.37 "Hg

Humidity: 56%

Dew point: 38 °F

Location of RedmondLocation

Historic Weather in Redmond — Graph

°F

Redmond temperature yesterday

Maximum temperature yesterday: 58 °F (at 1:53 PM)
Minimum temperature yesterday: 53 °F (at 6:53 PM)
Average temperature yesterday: 55 °F

Past Weeks' High & Low Weather Summary

 TemperatureHumidityPressure
High68 °F (Dec 10, 10:53 AM)93% (Dec 14, 2:53 AM)30.37 "Hg (Dec 14, 2:53 AM)
Low38 °F (Dec 14, 7:53 AM)27% (Dec 14, 3:53 PM)29.13 "Hg (Dec 11, 3:53 PM)
Average51 °F70%29.84 "Hg
* Reported Dec 7 1:53 PM — Dec 22 1:53 PM, Redmond, Weather by CustomWeather, © 2014

Note: Actual official high and low records may vary slightly from our data, if they occured in-between our weather recording intervals... More about our weather records

Advertising

Redmond weather history for previous 24 hours

 ConditionsComfort  
Time TempWeatherWind HumidityBarometerVisibility
1:53 PM
Dec 22
54 °FPartly sunny.No wind55%30.36 "Hg10 mi
12:53 PM53 °FPartly sunny.No wind59%30.36 "Hg10 mi
11:53 AM52 °FPartly sunny.No wind61%30.36 "Hg10 mi
10:53 AM50 °FBroken clouds.No wind66%30.37 "Hg10 mi
9:53 AM49 °FPartly sunny.No wind66%30.37 "Hg10 mi
8:53 AM47 °FSunny.3 mph71%30.34 "Hg10 mi
7:53 AM42 °FPassing clouds.8 mph82%30.32 "Hg10 mi
6:53 AM44 °FPassing clouds.No wind82%30.29 "Hg10 mi
5:53 AM45 °FPassing clouds.3 mph76%30.24 "Hg10 mi
4:53 AM45 °FClear.No wind82%30.23 "Hg10 mi
3:53 AM45 °FClear.No wind86%30.21 "Hg10 mi
2:53 AM47 °FClear.No wind86%30.18 "Hg10 mi
1:53 AM50 °FClear.No wind80%30.14 "Hg10 mi
12:53 AM52 °FPassing clouds.3 mph75%30.13 "Hg10 mi
11:53 PM
Dec 21
53 °FPassing clouds.No wind77%30.11 "Hg10 mi
10:53 PM54 °FPassing clouds.7 mph74%30.08 "Hg10 mi
9:53 PM54 °FPartly cloudy.5 mph72%30.06 "Hg10 mi
8:53 PM54 °FMostly cloudy.No wind72%30.09 "Hg10 mi
7:53 PM53 °FPartly cloudy.3 mph74%30.08 "Hg10 mi
6:53 PM53 °FPartly cloudy.7 mph74%30.07 "Hg10 mi
5:53 PM54 °FOvercast.6 mph69%30.06 "Hg10 mi
4:53 PM54 °FMostly cloudy.6 mph74%30.02 "Hg10 mi
3:53 PM56 °FOvercast.5 mph65%30.00 "Hg10 mi
3:00 PM57 °FOvercast.8 mph63%30.01 "Hg10 mi
Weather by CustomWeather, © 2014

See weather overviewHow to use our weather pages